User: anonymous   Login
Location: Unspecified
(0.0000°N, 0.0000°E)
Time: 14:18:13
(UTC+00:00)
Language:

DEIMOS 2 - Orbit

View from above orbital plane
View from above orbital plane
View from above satellite
View from above satellite

Ground track
Ground track

The orbit data is extracted from the following two-line orbital elements,

1 40013U 14033D   18114.97964819 -.00000446  00000-0 -46225-4 0  9996
2 40013  97.8662  20.3314 0002494  61.9697 298.1779 14.84818956208476
Epoch (UTC): 24 April 2018 23:30:41
Eccentricity: 0.0002494
inclination: 97.8662°
perigee height: 612 km
apogee height: 616 km
right ascension of ascending node: 20.3314°
argument of perigee: 61.9697°
revolutions per day: 14.84818956
mean anomaly at epoch: 298.1779°
orbit number at epoch: 20847

The dashed part of the orbit path shows where the satellite is in the earth's shadow,  

DLR